Regional Weather Roundup
Issued by NWS

Home | Current Version | Previous Version | Graphics & Text | Print | Product List | Glossary On
Versions: 1 2 3 4 5 6 7 8 9 10 11 12 13 14 15 16 17 18 19 20 21 22 23 24 25 26 27 28 29 30 31 32 33 34 35 36 37 38 39 40 41 42 43 44 45 46 47 48 49 50
638
ASUS43 KIND 240459
RWRIN

WEATHER ROUNDUP FOR INDIANA
NATIONAL WEATHER SERVICE INDIANAPOLIS IN
100 AM EDT TUE APR 24 2018

NOTE: "FAIR" INDICATES FEW OR NO CLOUDS BELOW 12,000 FEET WITH NO
SIGNIFICANT WEATHER AND/OR OBSTRUCTIONS TO VISIBILITY.

* - STATION DOES NOT REPORT WEATHER SUCH AS PRECIPITATION OR FOG.

+ - STATION NOT QUALITY CONTROLLED BY THE NATIONAL WEATHER SERVICE.
    USE DATA WITH CAUTION...ESPECIALLY DEWPOINT AND RELATIVE
    HUMIDITY OBSERVATIONS.

INZ001>003-010>013-019-020-240600-
NORTHWEST INDIANA

CITY           SKY/WX    TMP DP  RH WIND       PRES   REMARKS
KNOX *+        CLOUDY    52  50  93 E6        30.08F
MONTICELLO +   CLOUDY    52  49  90 E5        30.05F
RENSSELAER +   CLOUDY    52  48  87 E8        30.07S
VALPARAISO     CLOUDY    54  52  94 E8        30.09F

$$

LMZ046-743>745-240600-
SOUTHERN LAKE MICHIGAN

STATION/POSITION TIME  TEMP    WIND        PRES    WAVE
                       AIR SEA DIR/SP/G            HT
                 (UTC) (F)     (DEG/KT/KT) (MB)    (FT)
BURNS HARBOR     0440   42      CALM  /  3 1019.6F
MICHIGAN CITY    0430   45     360/  6/  6   N/A

$$

INZ004-005-014>016-021>024-240600-
NORTH CENTRAL INDIANA

CITY           SKY/WX    TMP DP  RH WIND       PRES   REMARKS
GOSHEN         MOCLDY    52  48  86 E10       30.10F
ROCHESTER +    CLOUDY    54  50  87 E8        30.09S
SOUTH BEND     LGT RAIN  54  48  80 SE8       30.12S
WARSAW +       LGT RAIN  50  48  93 E7        30.09F

$$

INZ006>009-017-018-025>027-240600-
NORTHEAST INDIANA

CITY           SKY/WX    TMP DP  RH WIND       PRES   REMARKS
ANGOLA *+      CLOUDY    52  46  82 E10       30.11F
FORT WAYNE     CLOUDY    51  49  92 E9        30.10F

$$

INZ028-029-035-036-043>045-051>053-240600-
WEST CENTRAL INDIANA

CITY           SKY/WX    TMP DP  RH WIND       PRES   REMARKS
GREENCASTLE +  CLOUDY    52  50  93 E8        30.01F
LAFAYETTE      CLOUDY    53  51  93 E12       30.03F
TERRE HAUTE    CLOUDY    53  52  96 E6        29.99F

$$

INZ030>032-037>040-046>048-054>057-064-065-240600-
CENTRAL INDIANA

CITY           SKY/WX    TMP DP  RH WIND       PRES   REMARKS
GREENWOOD *+   CLOUDY    52  49  90 E10       30.02F
INDIANAPOLIS   CLOUDY    53  50  89 E9        30.02F
-EAGLE CREEK   LGT RAIN  53  48  83 E7        30.02F
KOKOMO +       CLOUDY    51  48  89 E8        30.06F
MT COMFORT *+  CLOUDY    52  52 100 E10       30.03F
SHELBYVILLE    CLOUDY    54  48  80 E13       30.02F
ZIONSVILLE +   CLOUDY    51  48  90 E9        30.04F

$$

INZ033-034-041-042-049-050-058-059-240600-
EAST CENTRAL INDIANA

CITY           SKY/WX    TMP DP  RH WIND       PRES   REMARKS
MUNCIE         CLOUDY    53  48  83 SE15      30.05F
RICHMOND +     CLOUDY    48  48 100 E13       30.06F

$$

INZ060-061-067>069-081>083-085>088-240600-
SOUTHWEST INDIANA

CITY           SKY/WX    TMP DP  RH WIND       PRES   REMARKS
EVANSVILLE     CLOUDY    57  56  96 NE6       29.95S
HUNTINGBURG +  LGT RAIN  57  52  83 E7        29.96S

$$

INZ062-063-066-070>080-084-089>092-240600-
SOUTH CENTRAL AND SOUTHEAST INDIANA

CITY           SKY/WX    TMP DP  RH WIND       PRES   REMARKS
BLOOMINGTON    CLOUDY    54  51  90 E8        29.99F
FRENCH LICK *+ CLOUDY    54  52  94 CALM      29.98S
SEYMOUR +      CLOUDY    55  50  82 E6        30.00F

$$





USA.gov is the U.S. government's official web portal to all federal, state and local government web resources and services.